Location: Newark
(34.9500°N, 139.9667°E)
Time: 15:56:06
(UTC+00:00)

Courier 1B - Visible Passes

Search period start: 12 December 2019 00:00
Search period end: 22 December 2019 00:00
Orbit: 963 x 1209 km, 28.3° (Epoch: 11 December)

Date Brightness Start Highest point End Pass type
(mag) Time Alt. Az. Time Alt. Az. Time Alt. Az.
12 Dec 9.3 09:17:14 10° SSW 09:21:56 19° SSE 09:23:39 18° SE visible
12 Dec 9.8 11:08:42 10° SW 11:10:33 18° SW 11:10:33 18° SW visible
13 Dec 9.6 08:25:05 10° S 08:28:22 14° SSE 08:31:43 10° ESE visible
13 Dec 8.8 10:15:22 10° SW 10:20:12 32° S 10:20:12 32° S visible
14 Dec 8.8 09:22:13 10° SW 09:27:58 28° SSE 09:29:49 25° SE visible
14 Dec 9.7 11:14:44 10° WSW 11:16:43 20° WSW 11:16:43 20° WSW visible
15 Dec 9.2 08:29:18 10° SSW 08:34:21 22° SSE 08:39:26 11° ESE visible
15 Dec 8.6 10:21:15 10° WSW 10:26:20 39° SSW 10:26:20 39° SSW visible
16 Dec 8.5 09:27:52 10° SW 09:34:05 38° SSE 09:35:56 33° SE visible
16 Dec 9.8 11:21:00 10° WSW 11:22:50 19° WSW 11:22:50 19° WSW visible
17 Dec 8.8 08:34:38 10° SW 08:40:26 32° SSE 08:45:33 14° ESE visible
17 Dec 8.5 10:27:25 10° WSW 10:32:26 42° SSW 10:32:26 42° SSW visible
18 Dec 8.2 09:33:54 10° WSW 09:40:18 46° S 09:42:02 39° SE visible
18 Dec 9.9 11:27:23 10° WSW 11:28:56 17° WSW 11:28:56 17° WSW visible
19 Dec 8.4 08:40:28 10° SW 08:46:38 41° SSE 08:51:39 16° ESE visible
19 Dec 8.6 10:33:45 10° WSW 10:38:32 41° SW 10:38:32 41° SW visible
20 Dec 8.7 07:47:08 10° SW 07:53:00 35° SSE 07:59:07 10° E visible
20 Dec 8.1 09:40:10 10° WSW 09:46:36 50° S 09:48:10 42° SE visible
20 Dec 10.0 11:33:55 10° W 11:35:04 15° WSW 11:35:04 15° WSW visible
21 Dec 8.2 08:46:37 10° WSW 08:52:54 47° S 08:57:49 18° ESE visible
21 Dec 8.8 10:40:12 10° W 10:44:43 37° SW 10:44:43 37° SW visible
